646  
AXUS43 KGID 171102  
MISGRI  
 
GID CWA HOURLY WEATHER ROUNDUP  
NATIONAL WEATHER SERVICE HASTINGS NE  
600 AM CDT FRI AUG 17 2018  
 
NOTE: "FAIR" INDICATES FEW OR NO CLOUDS BELOW 12,000 FEET WITH NO  
SIGNIFICANT WEATHER AND/OR OBSTRUCTIONS TO VISIBILITY.  
   
..SOUTH CENTRAL NEBRASKA
 
 
 
CITY SKY/WX TMP DP RH WIND PRES REMARKS  
GRAND ISLAND CLEAR 62 61 96 W5 30.11S  
KEARNEY CLEAR 63 61 93 NW3 30.13S  
HASTINGS CLEAR 63 62 97 MISG 30.11F  
ORD NOT AVBL  
YORK CLEAR 61 59 94 CALM 30.10R  
AURORA CLEAR 60 60 100 N5 30.10S  
LEXINGTON CLEAR 61 60 96 W3 30.13S FOG  
HOLDREGE CLEAR 60 60 100 CALM 30.13S FOG  
HEBRON CLEAR 63 62 96 CALM 30.09R FOG  
   
..NEBRASKA PANHANDLE
 
 
 
CITY SKY/WX TMP DP RH WIND PRES REMARKS  
CHADRON CLEAR 53 51 93 CALM 30.19S  
ALLIANCE CLEAR 47 46 97 CALM 30.20F  
SCOTTSBLUFF CLEAR 56 54 93 CALM 30.22R  
SIDNEY CLEAR 52 50 93 W3 30.23F  
   
..WESTERN AND NORTH CENTRAL NEBRASKA
 
 
 
CITY SKY/WX TMP DP RH WIND PRES REMARKS  
VALENTINE CLEAR 59 58 96 CALM 30.16S  
AINSWORTH CLEAR 60 60 100 CALM 30.16S  
ONEILL FOG 62 62 98 CALM 30.14S VSB 1/2  
BROKEN BOW CLEAR 60 59 96 N5 30.14S  
IMPERIAL CLEAR 55 54 96 W3 30.18R  
NORTH PLATTE CLEAR 61 58 90 CALM 30.15S  
MCCOOK CLEAR 59 58 96 W7 30.14R FOG  
   
..EASTERN NEBRASKA
 
 
 
CITY SKY/WX TMP DP RH WIND PRES REMARKS  
NORFOLK CLEAR 62 61 96 W6 30.10R  
SO SIOUX CITY CLEAR 64 64 100 NW5 30.07R  
TEKAMAH CLEAR 63 63 100 N6 30.06R  
COLUMBUS CLEAR 62 61 96 MISG 30.09S  
ALBION CLEAR 59 59 98 NW3 30.11S FOG  
OMAHA EPPLEY CLEAR 66 63 90 N6 30.05R  
OFFUTT AFB CLEAR 63 63 99 NW5 30.04S  
MILLARD CLEAR 66 65 95 CALM 30.06R  
LINCOLN CLEAR 63 61 93 CALM 30.08R  
NEBRASKA CITY PTCLDY 65 65 100 N6 30.05R  
BEATRICE CLEAR 63 62 97 N5 30.06S FOG  
FALLS CITY CLEAR 65 64 97 W5 30.03R  
   
..NORTHERN KANSAS
 
 
 
CITY SKY/WX TMP DP RH WIND PRES REMARKS  
GOODLAND CLEAR 61 61 100 S6 30.17F  
HILL CITY CLEAR 63 62 97 CALM 30.12R  
NORTON SUNNY 61 61 100 CALM 30.12R  
SMITH CENTER CLEAR 63 61 94 N6 30.10S  
HAYS CLEAR 67 65 93 NE8 30.09S  
RUSSELL CLEAR 67 67 100 N7 30.07S  
CONCORDIA CLEAR 65 63 93 N3 30.07S  
SALINA CLEAR 68 68 100 CALM 30.05S  
TOPEKA CLEAR 70 69 97 CALM 30.02R  
 
CLICK HERE TO GO TO PREVIOUS BULLETINS.

The Nexlab NE Page
The Nexlab KS Page Main Text Page